CW3313 Weather Reports


Display with metric or nautical units.
time (UTC)temp
F
wind
direction
speed
MPH
gust
MPH
rain 1hr
in
rain 24hr
in
rain mn
in
humidity
%
barometer
mb
20260903065241 72 354 0.0 12.0 0.00 0.16 0.00 100 1014.9
20260903064739 72 355 0.0 0.0 0.00 0.16 0.00 100 1014.2
20260903064235 71 355 0.0 0.0 0.00 0.16 0.00 100 1013.9
20260903063733 71 355 0.0 0.0 0.00 0.16 0.00 100 1013.9
20260903063230 71 355 0.0 0.0 0.00 0.16 0.00 100 1014.2
20260903062728 72 355 0.0 0.0 0.00 0.16 0.00 100 1014.2
20260903062225 72 355 0.0 0.0 0.00 0.16 0.00 100 1013.9
20260903061722 71 355 0.0 0.0 0.00 0.16 0.00 100 1013.8
20260903061212 71 355 0.0 0.0 0.00 0.16 0.00 100 1013.8
20260903060710 72 355 0.0 0.0 0.00 0.16 0.00 100 1013.9
20260903060207 72 355 0.0 0.0 0.00 0.16 0.00 100 1013.9
20260903055622 72 355 0.0 0.0 0.00 0.16 0.00 100 1014.6
20260903055118 72 355 0.0 0.0 0.00 0.16 0.00 100 1014.2
20260903054616 71 355 0.0 0.0 0.00 0.16 0.00 100 1014.2
20260903054112 71 355 0.0 0.0 0.00 0.16 0.00 100 1014.2
20260903053610 71 355 0.0 0.0 0.00 0.16 0.00 100 1013.8
20260903053106 71 355 0.0 0.0 0.00 0.16 0.00 100 1013.8
20260903052603 71 355 0.0 0.0 0.00 0.16 0.00 100 1013.8
20260903052100 71 355 0.0 0.0 0.00 0.16 0.00 100 1013.9
20260903051536 71 355 0.0 0.0 0.00 0.16 0.00 100 1013.9
20260903051031 71 355 0.0 0.0 0.00 0.16 0.00 100 1013.8
20260903050529 71 355 0.0 0.0 0.00 0.16 0.00 100 1014.2
20260903050026 71 355 0.0 0.0 0.00 0.16 0.00 100 1014.2
20260903045524 71 355 0.0 0.0 0.00 0.16 0.00 100 1013.8
20260903045020 71 355 0.0 0.0 0.00 0.16 0.00 100 1013.8
20260903044518 71 355 0.0 0.0 0.00 0.16 0.00 100 1013.8
20260903043952 71 355 0.0 0.0 0.00 0.16 0.00 100 1013.8
20260903043450 71 355 0.0 0.0 0.00 0.16 0.00 100 1013.8
20260903042946 71 355 0.0 0.0 0.00 0.16 0.00 100 1013.8
20260903042340 71 355 0.0 0.0 0.05 0.16 0.00 100 1013.8
20260903041814 71 355 0.0 0.0 0.06 0.16 0.00 100 1013.7
20260903041312 71 355 0.0 0.0 0.07 0.16 0.00 100 1013.7
20260903040808 71 355 0.0 0.0 0.13 0.16 0.00 99 1014.1
20260903040306 71 355 0.0 0.0 0.13 0.16 0.00 99 1014.0
20260903035802 71 355 0.0 0.0 0.14 0.16 0.16 99 1013.7
20260903035259 71 355 0.0 0.0 0.14 0.16 0.16 99 1014.0
20260903034756 71 357 0.0 0.0 0.15 0.16 0.16 98 1013.7
20260903034253 71 355 1.0 0.0 0.16 0.16 0.16 98 1014.0
20260903033750 71 356 3.0 6.0 0.16 0.16 0.16 97 1014.0
20260903033247 71 352 4.0 19.0 0.16 0.16 0.16 97 1013.7
20260903032744 70 346 8.0 22.0 0.14 0.14 0.14 95 1015.0
20260903032214 71 346 7.0 22.0 0.11 0.11 0.11 96 1013.7
20260903031711 70 346 6.0 37.0 0.10 0.10 0.10 96 1014.0
20260903031147 70 348 6.0 37.0 0.07 0.07 0.07 95 1013.6
20260903030643 70 349 4.0 12.0 0.03 0.03 0.03 93 1013.6
20260903025313 76 347 5.0 27.0 0.02 0.02 0.02 85 1013.8
20260903024811 79 329 3.0 27.0 0.01 0.01 0.01 83 1013.9
20260903024308 79 257 2.0 12.0 0.00 0.00 0.00 85 1014.3
20260903023806 79 209 0.0 8.0 0.00 0.00 0.00 86 1013.2
20260903023302 79 200 0.0 0.0 0.00 0.00 0.00 86 1012.6
20260903022739 79 200 0.0 0.0 0.00 0.00 0.00 86 1012.2
20260903022234 79 200 0.0 0.0 0.00 0.00 0.00 86 1012.6
20260903021732 79 200 0.0 0.0 0.00 0.00 0.00 86 1012.2
20260903021229 79 200 0.0 0.0 0.00 0.00 0.00 86 1012.5
20260903020726 79 200 0.0 0.0 0.00 0.00 0.00 86 1012.8
20260903020221 79 200 0.0 0.0 0.00 0.00 0.00 86 1013.5
20260903015719 79 200 0.0 0.0 0.00 0.00 0.00 85 1013.5
20260903015216 79 200 0.0 0.0 0.00 0.00 0.00 85 1013.5
20260903014652 80 200 0.0 0.0 0.00 0.00 0.00 85 1013.5
20260903014148 80 200 0.0 0.0 0.00 0.00 0.00 85 1013.5
20260903013646 80 200 0.0 0.0 0.00 0.00 0.00 84 1013.5
20260903013143 80 200 0.0 0.0 0.00 0.00 0.00 84 1013.5
20260903012641 80 200 0.0 0.0 0.00 0.00 0.00 82 1013.5
20260903012137 81 200 0.0 0.0 0.00 0.00 0.00 82 1013.5
20260903011613 81 200 0.0 0.0 0.00 0.00 0.00 81 1013.4
20260903011109 81 200 0.0 0.0 0.00 0.00 0.00 81 1013.4
20260903010607 81 200 0.0 0.0 0.00 0.00 0.00 82 1013.1
20260903005558 81 200 0.0 0.0 0.00 0.00 0.00 81 1013.1
20260903005053 81 200 0.0 0.0 0.00 0.00 0.00 80 1013.1
20260903004551 81 200 0.0 0.0 0.00 0.00 0.00 80 1013.1
20260903004046 82 200 0.0 0.0 0.00 0.00 0.00 79 1013.1
20260903003544 82 200 0.0 0.0 0.00 0.00 0.00 79 1012.7
20260903003040 82 200 0.0 0.0 0.00 0.00 0.00 79 1012.7
20260903002538 82 200 0.0 0.0 0.00 0.00 0.00 78 1012.7
20260903002034 83 200 0.0 0.0 0.00 0.00 0.00 78 1012.7
20260903001510 83 200 0.0 0.0 0.00 0.00 0.00 78 1013.1
20260903000945 83 200 0.0 0.0 0.00 0.00 0.00 77 1013.1
20260903000443 84 200 0.0 0.0 0.00 0.00 0.00 76 1012.8
20260902235939 84 200 0.0 0.0 0.00 0.00 0.00 75 1012.8
20260902235436 85 200 0.0 0.0 0.00 0.00 0.00 74 1012.8
20260902234932 85 200 0.0 0.0 0.00 0.00 0.00 73 1012.8
20260902234408 85 198 0.0 0.0 0.00 0.00 0.00 73 1012.8
20260902233905 86 191 0.0 0.0 0.00 0.00 0.00 72 1012.8
20260902233402 86 182 0.0 0.0 0.00 0.00 0.00 72 1012.8
20260902232754 87 176 0.0 0.0 0.00 0.00 0.00 71 1012.8
20260902232251 87 174 0.0 0.0 0.00 0.00 0.00 70 1012.8
20260902231747 87 175 0.0 0.0 0.00 0.00 0.00 70 1012.8
20260902231245 87 182 0.0 0.0 0.00 0.00 0.00 70 1012.9
20260902230733 87 176 0.0 4.0 0.00 0.00 0.00 70 1012.9
20260902230230 87 172 0.0 4.0 0.00 0.00 0.00 70 1012.9
20260902225705 88 144 0.0 2.0 0.00 0.00 0.00 71 1012.9
20260902225141 88 129 0.0 2.0 0.00 0.00 0.00 70 1012.9
20260902224637 88 124 0.0 2.0 0.00 0.00 0.00 70 1012.9
20260902224135 88 147 0.0 2.0 0.00 0.00 0.00 70 1012.9
20260902223625 88 158 0.0 5.0 0.00 0.00 0.00 69 1012.9
20260902223122 88 149 0.0 3.0 0.00 0.00 0.00 71 1012.9
20260902222557 89 125 0.0 4.0 0.00 0.00 0.00 69 1012.9
20260902222055 89 108 0.0 3.0 0.00 0.00 0.00 69 1012.6
20260902221552 89 123 0.0 1.0 0.00 0.00 0.00 68 1012.9
20260902221004 89 142 0.0 2.0 0.00 0.00 0.00 67 1012.9
20260902220501 89 175 0.0 3.0 0.00 0.00 0.00 66 1012.9
20260902215937 89 189 0.0 3.0 0.00 0.00 0.00 66 1012.9
20260902215432 90 187 0.0 3.0 0.00 0.00 0.00 64 1012.9
20260902214908 90 186 0.0 5.0 0.00 0.00 0.00 65 1012.9
20260902214404 90 194 0.0 5.0 0.00 0.00 0.00 63 1012.9
20260902213840 90 201 0.0 5.0 0.00 0.00 0.00 64 1012.9
20260902213337 90 202 0.0 5.0 0.00 0.00 0.00 63 1012.9
20260902212835 90 207 0.0 5.0 0.00 0.00 0.00 62 1012.9
20260902212331 91 204 0.0 6.0 0.00 0.00 0.00 64 1013.0
20260902211828 91 194 0.0 3.0 0.00 0.00 0.00 64 1013.0
20260902211324 91 199 0.0 6.0 0.00 0.00 0.00 64 1013.3
20260902210823 91 181 0.0 6.0 0.00 0.00 0.00 64 1013.0
20260902210258 91 187 0.0 3.0 0.00 0.00 0.00 63 1013.0
20260902205755 91 207 0.0 2.0 0.00 0.00 0.00 63 1013.0
20260902205251 91 230 0.0 2.0 0.00 0.00 0.00 64 1013.3
20260902204749 91 271 0.0 2.0 0.00 0.00 0.00 64 1013.3
20260902204240 92 316 0.0 4.0 0.00 0.00 0.00 64 1013.3
20260902203738 92 24 0.0 4.0 0.00 0.00 0.00 62 1013.3
20260902203235 92 120 0.0 3.0 0.00 0.00 0.00 62 1013.3
20260902202732 92 172 0.0 6.0 0.00 0.00 0.00 62 1013.7
20260902202227 91 211 0.0 5.0 0.00 0.00 0.00 63 1013.7
20260902201725 91 237 0.0 3.0 0.00 0.00 0.00 64 1013.7
20260902201221 91 266 0.0 7.0 0.00 0.00 0.00 64 1014.0
20260902200719 91 253 0.0 7.0 0.00 0.00 0.00 65 1014.0
20260902200211 91 218 0.0 7.0 0.00 0.00 0.00 64 1014.0
20260902195708 91 177 0.0 1.0 0.00 0.00 0.00 63 1014.0
20260902195204 91 168 0.0 4.0 0.00 0.00 0.00 63 1014.0
20260902194702 91 197 0.0 5.0 0.00 0.00 0.00 62 1014.3
20260902194115 92 230 0.0 7.0 0.00 0.00 0.00 62 1014.3
20260902193552 91 275 0.0 4.0 0.00 0.00 0.00 62 1014.3
20260902193048 91 328 0.0 4.0 0.00 0.00 0.00 62 1014.3
20260902192545 92 352 0.0 3.0 0.00 0.00 0.00 63 1014.3
20260902192042 92 4 0.0 7.0 0.00 0.00 0.00 63 1014.7
20260902191539 92 4 0.0 7.0 0.00 0.00 0.00 62 1014.7
20260902191034 92 257 0.0 6.0 0.00 0.00 0.00 64 1014.7
20260902190532 92 250 0.0 6.0 0.00 0.00 0.00 63 1014.7
20260902190029 91 238 0.0 5.0 0.00 0.00 0.00 63 1014.6
20260902185527 91 241 0.0 2.0 0.00 0.00 0.00 65 1014.6
20260902185001 91 227 0.0 5.0 0.00 0.00 0.00 62 1014.6
20260902184354 92 191 0.0 5.0 0.00 0.00 0.00 65 1014.7
20260902183850 92 186 0.0 3.0 0.00 0.00 0.00 64 1014.7
20260902183348 92 199 0.0 6.0 0.00 0.00 0.00 64 1014.7
20260902182823 91 181 0.0 6.0 0.00 0.00 0.00 61 1014.6
20260902182259 91 171 0.0 6.0 0.00 0.00 0.00 64 1014.6
20260902181712 90 176 0.0 8.0 0.00 0.00 0.00 65 1014.6
20260902181148 91 179 0.0 8.0 0.00 0.00 0.00 65 1014.6
20260902180644 91 190 0.0 5.0 0.00 0.00 0.00 63 1014.6
20260902180142 92 203 0.0 5.0 0.00 0.00 0.00 65 1014.7
20260902175638 92 219 0.0 5.0 0.00 0.00 0.00 65 1015.0
20260902175114 91 206 0.0 5.0 0.00 0.00 0.00 65 1015.0
20260902174609 91 198 0.0 1.0 0.00 0.00 0.00 67 1015.0
20260902174101 91 177 0.0 1.0 0.00 0.00 0.00 67 1015.0
20260902173557 90 151 0.0 1.0 0.00 0.00 0.00 72 1015.3
20260902173055 90 149 0.0 1.0 0.00 0.00 0.00 70 1015.3
20260902172552 90 94 0.0 5.0 0.00 0.00 0.00 70 1015.3
20260902172049 91 69 0.0 5.0 0.00 0.00 0.00 68 1015.4
20260902171523 91 72 0.0 3.0 0.00 0.00 0.00 68 1015.4
20260902171019 90 49 0.0 4.0 0.00 0.00 0.00 70 1015.3
20260902170511 90 46 0.0 4.0 0.00 0.00 0.00 68 1015.7
20260902170009 91 27 0.0 1.0 0.00 0.00 0.00 67 1015.7
20260902165506 90 22 0.0 3.0 0.00 0.00 0.00 71 1015.7
20260902165002 90 22 0.0 3.0 0.00 0.00 0.00 71 1016.0
20260902164354 89 28 0.0 2.0 0.00 0.00 0.00 71 1016.0
20260902163852 89 355 0.0 1.0 0.00 0.00 0.00 72 1016.0
20260902163349 88 234 0.0 4.0 0.00 0.00 0.00 72 1015.9
20260902162825 88 210 0.0 3.0 0.00 0.00 0.00 73 1015.9
20260902162300 88 203 0.0 1.0 0.00 0.00 0.00 75 1015.9
20260902161758 87 186 0.0 1.0 0.00 0.00 0.00 75 1015.9
20260902161253 87 173 0.0 1.0 0.00 0.00 0.00 74 1015.6
20260902160751 87 184 0.0 2.0 0.00 0.00 0.00 75 1015.6
20260902160248 87 177 0.0 2.0 0.00 0.00 0.00 75 1015.6
20260902155746 86 132 0.0 1.0 0.00 0.00 0.00 77 1015.6
20260902155242 86 90 0.0 1.0 0.00 0.00 0.00 77 1015.9
20260902154740 86 9 0.0 4.0 0.00 0.00 0.00 77 1015.5
20260902154236 86 16 0.0 3.0 0.00 0.00 0.00 79 1015.6
20260902153713 86 191 0.0 3.0 0.00 0.00 0.00 77 1015.5
20260902153148 86 191 0.0 3.0 0.00 0.00 0.00 76 1015.9
20260902152624 86 200 0.0 3.0 0.00 0.00 0.00 77 1015.9
20260902152121 86 223 0.0 2.0 0.00 0.00 0.00 76 1015.5
20260902151618 86 256 0.0 1.0 0.00 0.00 0.00 78 1015.5
20260902151114 86 8 0.0 0.0 0.00 0.00 0.00 77 1015.5
20260902150612 85 19 0.0 0.0 0.00 0.00 0.00 79 1015.5
20260902150105 85 19 0.0 0.0 0.00 0.00 0.00 77 1015.5
20260902145601 84 326 0.0 0.0 0.00 0.00 0.00 80 1015.5
20260902145057 84 252 0.0 1.0 0.00 0.00 0.00 81 1015.5
20260902144553 84 208 0.0 0.0 0.00 0.00 0.00 80 1015.5
20260902144049 84 216 0.0 1.0 0.00 0.00 0.00 80 1015.5
20260902143546 84 224 0.0 0.0 0.00 0.00 0.00 82 1015.5
20260902143043 83 287 0.0 1.0 0.00 0.00 0.00 81 1015.5
20260902142543 83 330 0.0 1.0 0.00 0.00 0.00 83 1015.5
20260902142016 83 9 0.0 0.0 0.00 0.00 0.00 83 1015.5
20260902141452 82 34 0.0 0.0 0.00 0.00 0.00 83 1015.5
20260902140948 81 52 0.0 1.0 0.00 0.00 0.00 84 1015.5
20260902140425 81 70 0.0 0.0 0.00 0.00 0.00 86 1015.4
20260902135900 81 94 0.0 1.0 0.00 0.00 0.00 86 1015.4
20260902135358 80 117 0.0 1.0 0.00 0.00 0.00 87 1015.4
20260902134833 80 122 0.0 0.0 0.00 0.00 0.00 89 1015.4
20260902134330 79 123 0.0 0.0 0.00 0.00 0.00 90 1015.4
20260902133825 79 124 0.0 0.0 0.00 0.00 0.00 90 1015.4
20260902133323 79 125 0.0 0.0 0.00 0.00 0.00 91 1015.4
20260902132757 79 125 0.0 0.0 0.00 0.00 0.00 92 1015.4
20260902132255 78 125 0.0 0.0 0.00 0.00 0.00 92 1015.7
20260902131752 78 126 0.0 0.0 0.00 0.00 0.00 93 1015.7
20260902131228 78 126 0.0 0.0 0.00 0.00 0.00 94 1015.7
20260902130702 77 126 0.0 0.0 0.00 0.00 0.00 94 1015.4
20260902130159 77 126 0.0 0.0 0.00 0.00 0.00 96 1015.3
20260902125656 76 126 0.0 0.0 0.00 0.00 0.00 96 1015.3
20260902125153 76 125 0.0 0.0 0.00 0.00 0.00 97 1015.3
20260902124628 76 124 0.0 0.0 0.00 0.00 0.00 97 1015.6
20260902124104 75 124 0.0 0.0 0.00 0.00 0.00 98 1015.3
20260902123559 75 124 0.0 0.0 0.00 0.00 0.00 99 1015.3
20260902123057 75 124 0.0 0.0 0.00 0.00 0.00 99 1015.6
20260902122511 74 124 0.0 0.0 0.00 0.00 0.00 99 1015.6
20260902122008 74 124 0.0 0.0 0.00 0.00 0.00 99 1015.6
20260902121505 74 124 0.0 0.0 0.00 0.00 0.00 99 1015.6
20260902121003 74 124 0.0 0.0 0.00 0.00 0.00 99 1015.6
20260902120458 74 124 0.0 0.0 0.00 0.00 0.00 100 1015.3
20260902115956 74 124 0.0 0.0 0.00 0.00 0.00 99 1015.6
20260902115453 74 124 0.0 0.0 0.00 0.00 0.00 100 1015.3
20260902114950 74 124 0.0 0.0 0.00 0.00 0.00 100 1015.3
20260902114447 74 124 0.0 0.0 0.00 0.00 0.00 100 1015.3
20260902113945 73 124 0.0 0.0 0.00 0.00 0.00 100 1015.3
20260902113440 73 124 0.0 0.0 0.00 0.00 0.00 100 1015.3
20260902112917 74 124 0.0 0.0 0.00 0.00 0.00 100 1015.3
20260902112413 74 124 0.0 0.0 0.00 0.00 0.00 100 1015.0
20260902111911 74 124 0.0 0.0 0.00 0.00 0.00 100 1015.4
20260902111408 74 124 0.0 0.0 0.00 0.00 0.00 100 1015.4
20260902110844 74 124 0.0 0.0 0.00 0.00 0.00 100 1015.4
20260902110338 74 124 0.0 0.0 0.00 0.00 0.00 100 1015.4
20260902105836 74 124 0.0 0.0 0.00 0.00 0.00 100 1015.4
20260902105333 74 124 0.0 0.0 0.00 0.00 0.00 100 1015.4
20260902104830 74 124 0.0 0.0 0.00 0.00 0.00 100 1015.4
20260902104327 74 124 0.0 0.0 0.00 0.00 0.00 100 1015.4
20260902103825 74 124 0.0 0.0 0.00 0.00 0.00 100 1015.5
20260902103319 74 124 0.0 0.0 0.00 0.00 0.00 100 1015.5
20260902102816 74 124 0.0 0.0 0.00 0.00 0.00 100 1015.1
20260902102313 74 124 0.0 0.0 0.00 0.00 0.00 100 1015.5
20260902101810 73 124 0.0 0.0 0.00 0.00 0.00 100 1015.1
20260902101306 73 124 0.0 0.0 0.00 0.00 0.00 100 1015.1
20260902100804 73 124 0.0 0.0 0.00 0.00 0.00 100 1015.1
20260902100259 73 124 0.0 0.0 0.00 0.00 0.00 100 1015.1
20260902095757 73 124 0.0 0.0 0.00 0.00 0.00 100 1015.1
20260902095253 73 124 0.0 0.0 0.00 0.00 0.00 100 1014.8
20260902094751 73 124 0.0 0.0 0.00 0.00 0.00 100 1014.8
20260902094248 73 124 0.0 0.0 0.00 0.00 0.00 100 1014.8
20260902093746 73 124 0.0 0.0 0.00 0.00 0.00 100 1014.8
20260902093241 73 124 0.0 0.0 0.00 0.00 0.00 100 1014.8
20260902092739 73 124 0.0 0.0 0.00 0.00 0.00 100 1014.8
20260902092236 73 124 0.0 0.0 0.00 0.00 0.00 100 1015.1
20260902091712 73 124 0.0 0.0 0.00 0.00 0.00 100 1014.8
20260902091209 73 124 0.0 0.0 0.00 0.00 0.00 100 1014.8
20260902090707 73 124 0.0 0.0 0.00 0.00 0.00 100 1014.8
20260902090142 73 124 0.0 0.0 0.00 0.00 0.00 100 1014.8
20260902085639 73 124 0.0 0.0 0.00 0.00 0.00 100 1014.8
20260902085114 73 124 0.0 0.0 0.00 0.00 0.00 100 1014.8
20260902084612 73 124 0.0 0.0 0.00 0.00 0.00 100 1014.8
20260902084109 73 124 0.0 0.0 0.00 0.00 0.00 100 1014.8
20260902083606 73 124 0.0 0.0 0.00 0.00 0.00 100 1014.8
20260902083101 73 124 0.0 0.0 0.00 0.00 0.00 100 1014.8
20260902082559 73 124 0.0 0.0 0.00 0.00 0.00 100 1014.8
20260902082055 73 124 0.0 0.0 0.00 0.00 0.00 100 1014.8
20260902081553 73 124 0.0 0.0 0.00 0.00 0.00 100 1014.8
20260902081050 73 124 0.0 0.0 0.00 0.00 0.00 100 1014.8
20260902080547 73 124 0.0 0.0 0.00 0.00 0.00 100 1014.8
20260902080043 73 124 0.0 0.0 0.00 0.00 0.00 100 1014.8
20260902075520 73 124 0.0 0.0 0.00 0.00 0.00 100 1014.8
20260902075015 73 124 0.0 0.0 0.00 0.00 0.00 100 1014.8
20260902074430 73 124 0.0 0.0 0.00 0.00 0.00 100 1014.8
20260902073905 72 124 0.0 0.0 0.00 0.00 0.00 100 1014.8
20260902073403 72 124 0.0 0.0 0.00 0.00 0.00 100 1014.8
20260902072859 72 124 0.0 0.0 0.00 0.00 0.00 100 1014.8
20260902072356 72 124 0.0 0.0 0.00 0.00 0.00 100 1014.8
20260902071853 72 124 0.0 0.0 0.00 0.00 0.00 100 1014.8
20260902071350 72 124 0.0 0.0 0.00 0.00 0.00 100 1014.8
20260902070842 72 124 0.0 0.0 0.00 0.00 0.00 100 1014.8
20260902070340 72 124 0.0 0.0 0.00 0.00 0.00 99 1015.1
20260902065837 72 124 0.0 0.0 0.00 0.00 0.00 99 1015.1